N5462E PHLI-PHTO

Flight info

Callsign N5462E
Flight time 1h 9m
Altitude 31000
Route LIH V15 HNL V2 LNY V16 UPP V2 ITO
Aircraft SF50/L-SDGRWY/L

Departure

Time 2026-04-14 02:36
Airport Lihue Airport (PHLI)

Arrival

Time 2026-04-14 03:46
Airport Hilo International Airport (PHTO)
Time Latitude Longitude Altitude Speed Heading
2026-04-14 02:30 21.98458 -159.33926 93 ft 0 kts 133°
2026-04-14 02:34 21.98454 -159.33920 93 ft 5 kts 100°
2026-04-14 02:34 21.98435 -159.33835 88 ft 21 kts 136°
2026-04-14 02:34 21.98302 -159.33707 89 ft 24 kts 162°
2026-04-14 02:34 21.98182 -159.33698 120 ft 13 kts 151°
2026-04-14 02:35 21.98153 -159.33620 137 ft 12 kts 102°
2026-04-14 02:35 21.98119 -159.33590 137 ft 0 kts 180°
2026-04-14 02:35 21.98112 -159.33590 136 ft 11 kts 180°
2026-04-14 02:35 21.97822 -159.33590 128 ft 71 kts 180°
2026-04-14 02:36 21.97164 -159.33588 200 ft 109 kts 180°
2026-04-14 02:36 21.96379 -159.33427 480 ft 128 kts 154°
2026-04-14 02:36 21.95726 -159.32614 676 ft 160 kts 118°
2026-04-14 02:36 21.95224 -159.31523 1075 ft 164 kts 122°
2026-04-14 02:37 21.94651 -159.30478 1581 ft 162 kts 123°
2026-04-14 02:37 21.94068 -159.29431 2021 ft 164 kts 124°
2026-04-14 02:37 21.93475 -159.28376 2453 ft 165 kts 124°
2026-04-14 02:37 21.92879 -159.27308 2888 ft 167 kts 124°
2026-04-14 02:38 21.92271 -159.26224 3305 ft 171 kts 123°
2026-04-14 02:38 21.91652 -159.25123 3733 ft 173 kts 124°
2026-04-14 02:38 21.91024 -159.24001 4151 ft 176 kts 124°
2026-04-14 02:38 21.90387 -159.22867 4578 ft 178 kts 124°
2026-04-14 02:39 21.89960 -159.22110 4856 ft 179 kts 124°
2026-04-14 02:39 21.89314 -159.20954 5241 ft 181 kts 124°
2026-04-14 02:39 21.88657 -159.19786 5630 ft 183 kts 124°
2026-04-14 02:39 21.87994 -159.18606 6012 ft 186 kts 125°
2026-04-14 02:40 21.87097 -159.17017 6517 ft 189 kts 124°
2026-04-14 02:40 21.86417 -159.15803 6890 ft 189 kts 124°
2026-04-14 02:40 21.85953 -159.14981 7142 ft 190 kts 124°
2026-04-14 02:40 21.85267 -159.13760 7522 ft 191 kts 125°
2026-04-14 02:41 21.84576 -159.12537 7886 ft 192 kts 125°
2026-04-14 02:41 21.83884 -159.11305 8262 ft 192 kts 124°
2026-04-14 02:41 21.83194 -159.10084 8599 ft 195 kts 124°
2026-04-14 02:41 21.82492 -159.08833 8956 ft 196 kts 124°
2026-04-14 02:42 21.81784 -159.07577 9317 ft 197 kts 125°
2026-04-14 02:42 21.81064 -159.06297 9676 ft 198 kts 124°
2026-04-14 02:42 21.80360 -159.05044 10018 ft 198 kts 125°
2026-04-14 02:42 21.79641 -159.03771 10324 ft 200 kts 125°
2026-04-14 02:43 21.78917 -159.02483 10626 ft 202 kts 125°
2026-04-14 02:43 21.78186 -159.01188 10938 ft 203 kts 125°
2026-04-14 02:43 21.77454 -158.99887 11252 ft 204 kts 125°
2026-04-14 02:43 21.76714 -158.98576 11567 ft 206 kts 125°
2026-04-14 02:44 21.75969 -158.97253 11871 ft 207 kts 125°
2026-04-14 02:44 21.75219 -158.95923 12183 ft 209 kts 125°
2026-04-14 02:44 21.74462 -158.94582 12504 ft 210 kts 126°
2026-04-14 02:44 21.73695 -158.93230 12827 ft 212 kts 126°
2026-04-14 02:45 21.72928 -158.91872 13143 ft 213 kts 126°
2026-04-14 02:45 21.72154 -158.90504 13451 ft 215 kts 126°
2026-04-14 02:45 21.71374 -158.89126 13780 ft 216 kts 126°
2026-04-14 02:45 21.70590 -158.87739 14071 ft 218 kts 126°
2026-04-14 02:46 21.69798 -158.86343 14344 ft 220 kts 126°
2026-04-14 02:46 21.68999 -158.84930 14607 ft 222 kts 126°
2026-04-14 02:46 21.68192 -158.83506 14894 ft 223 kts 126°
2026-04-14 02:46 21.67381 -158.82074 15181 ft 225 kts 126°
2026-04-14 02:47 21.66565 -158.80633 15468 ft 226 kts 126°
2026-04-14 02:47 21.65743 -158.79184 15757 ft 228 kts 125°
2026-04-14 02:47 21.64918 -158.77723 16045 ft 229 kts 125°
2026-04-14 02:47 21.64086 -158.76258 16333 ft 230 kts 125°
2026-04-14 02:48 21.63261 -158.74798 16620 ft 232 kts 125°
2026-04-14 02:48 21.62418 -158.73312 16910 ft 233 kts 125°
2026-04-14 02:48 21.61571 -158.71818 17201 ft 235 kts 124°
2026-04-14 02:48 21.60717 -158.70312 17480 ft 236 kts 124°
2026-04-14 02:49 21.59859 -158.68801 17782 ft 238 kts 124°
2026-04-14 02:49 21.58998 -158.67280 18071 ft 239 kts 124°
2026-04-14 02:49 21.58129 -158.65752 18353 ft 240 kts 124°
2026-04-14 02:49 21.57256 -158.64213 18610 ft 241 kts 124°
2026-04-14 02:50 21.56380 -158.62671 18872 ft 242 kts 125°
2026-04-14 02:50 21.55501 -158.61129 19135 ft 242 kts 125°
2026-04-14 02:50 21.54622 -158.59581 19401 ft 243 kts 126°
2026-04-14 02:50 21.53738 -158.58030 19671 ft 243 kts 126°
2026-04-14 02:51 21.52865 -158.56495 19937 ft 244 kts 126°
2026-04-14 02:51 21.51980 -158.54940 20203 ft 244 kts 127°
2026-04-14 02:51 21.51089 -158.53377 20469 ft 245 kts 127°
2026-04-14 02:51 21.50196 -158.51807 20695 ft 247 kts 127°
2026-04-14 02:52 21.49290 -158.50222 20921 ft 250 kts 127°
2026-04-14 02:52 21.48385 -158.48628 21213 ft 249 kts 128°
2026-04-14 02:52 21.47482 -158.47044 21492 ft 248 kts 128°
2026-04-14 02:52 21.46580 -158.45464 21782 ft 248 kts 129°
2026-04-14 02:53 21.45690 -158.43903 22062 ft 248 kts 129°
2026-04-14 02:53 21.44792 -158.42326 22341 ft 247 kts 129°
2026-04-14 02:53 21.43896 -158.40750 22629 ft 247 kts 130°
2026-04-14 02:53 21.42999 -158.39177 22916 ft 246 kts 130°
2026-04-14 02:54 21.42106 -158.37610 23205 ft 246 kts 130°
2026-04-14 02:54 21.41215 -158.36045 23499 ft 245 kts 131°
2026-04-14 02:54 21.40324 -158.34485 23758 ft 245 kts 131°
2026-04-14 02:54 21.39437 -158.32928 23994 ft 245 kts 131°
2026-04-14 02:55 21.38547 -158.31371 24225 ft 245 kts 131°
2026-04-14 02:55 21.37670 -158.29831 24461 ft 245 kts 131°
2026-04-14 02:55 21.36779 -158.28272 24695 ft 245 kts 132°
2026-04-14 02:55 21.35890 -158.26715 24928 ft 245 kts 132°
2026-04-14 02:56 21.35002 -158.25157 25164 ft 244 kts 132°
2026-04-14 02:56 21.34111 -158.23601 25401 ft 244 kts 132°
2026-04-14 02:56 21.33222 -158.22045 25638 ft 244 kts 132°
2026-04-14 02:56 21.32344 -158.20509 25868 ft 244 kts 133°
2026-04-14 02:57 21.31454 -158.18956 26100 ft 244 kts 132°
2026-04-14 02:57 21.30740 -158.17257 26320 ft 256 kts 115°
2026-04-14 02:57 21.30453 -158.15340 26569 ft 265 kts 98°
2026-04-14 02:57 21.30501 -158.13352 26806 ft 266 kts 95°
2026-04-14 02:58 21.30530 -158.11367 27054 ft 265 kts 96°
2026-04-14 02:58 21.30554 -158.09385 27305 ft 265 kts 96°
2026-04-14 02:58 21.30588 -158.07430 27555 ft 265 kts 96°
2026-04-14 02:58 21.30624 -158.05455 27804 ft 265 kts 96°
2026-04-14 02:59 21.30657 -158.03480 28050 ft 264 kts 96°
2026-04-14 02:59 21.30689 -158.01509 28296 ft 264 kts 96°
2026-04-14 02:59 21.30723 -157.99537 28540 ft 264 kts 96°
2026-04-14 02:59 21.30754 -157.97570 28773 ft 263 kts 96°
2026-04-14 03:00 21.30787 -157.95604 29016 ft 263 kts 96°
2026-04-14 03:00 21.30692 -157.93661 29225 ft 255 kts 111°
2026-04-14 03:00 21.30153 -157.91902 29459 ft 243 kts 127°
2026-04-14 03:00 21.29327 -157.90387 29679 ft 236 kts 134°
2026-04-14 03:01 21.28478 -157.88870 29907 ft 237 kts 132°
2026-04-14 03:01 21.27636 -157.87343 30136 ft 236 kts 133°
2026-04-14 03:01 21.26786 -157.85829 30312 ft 236 kts 133°
2026-04-14 03:01 21.25936 -157.84319 30487 ft 236 kts 133°
2026-04-14 03:02 21.25096 -157.82825 30658 ft 237 kts 133°
2026-04-14 03:02 21.24248 -157.81313 30854 ft 237 kts 133°
2026-04-14 03:02 21.23397 -157.79794 31032 ft 238 kts 133°
2026-04-14 03:02 21.22518 -157.78244 31047 ft 247 kts 133°
2026-04-14 03:03 21.21608 -157.76632 31055 ft 257 kts 132°
2026-04-14 03:03 21.20669 -157.74958 31058 ft 267 kts 131°
2026-04-14 03:03 21.19709 -157.73246 31055 ft 275 kts 131°
2026-04-14 03:03 21.18708 -157.71464 31054 ft 281 kts 131°
2026-04-14 03:04 21.17689 -157.69654 31053 ft 286 kts 131°
2026-04-14 03:04 21.16654 -157.67813 31051 ft 290 kts 131°
2026-04-14 03:04 21.15599 -157.65943 31053 ft 294 kts 131°
2026-04-14 03:04 21.14545 -157.64073 31050 ft 298 kts 130°
2026-04-14 03:05 21.13468 -157.62164 31048 ft 301 kts 130°
2026-04-14 03:05 21.11285 -157.58293 31051 ft 306 kts 130°
2026-04-14 03:06 21.09062 -157.54358 31051 ft 311 kts 130°
2026-04-14 03:06 21.06821 -157.50389 31042 ft 315 kts 130°
2026-04-14 03:07 21.04539 -157.46352 31047 ft 318 kts 130°
2026-04-14 03:07 21.02232 -157.42275 31050 ft 322 kts 130°
2026-04-14 03:08 20.99896 -157.38149 31046 ft 325 kts 130°
2026-04-14 03:08 20.97555 -157.34015 31044 ft 328 kts 130°
2026-04-14 03:09 20.95179 -157.29819 31044 ft 330 kts 130°
2026-04-14 03:09 20.92785 -157.25596 31058 ft 331 kts 129°
2026-04-14 03:10 20.90417 -157.21427 31062 ft 330 kts 130°
2026-04-14 03:10 20.88031 -157.17223 31075 ft 330 kts 130°
2026-04-14 03:11 20.85653 -157.13041 31086 ft 330 kts 130°
2026-04-14 03:11 20.83255 -157.08829 31092 ft 331 kts 129°
2026-04-14 03:12 20.80853 -157.04610 31106 ft 333 kts 129°
2026-04-14 03:12 20.78458 -157.00407 31108 ft 333 kts 129°
2026-04-14 03:13 20.76075 -156.96161 31109 ft 335 kts 126°
2026-04-14 03:13 20.73901 -156.91742 31110 ft 335 kts 125°
2026-04-14 03:14 20.71712 -156.87348 31101 ft 335 kts 125°
2026-04-14 03:14 20.69525 -156.82946 31089 ft 335 kts 125°
2026-04-14 03:15 20.67357 -156.78587 31078 ft 334 kts 125°
2026-04-14 03:15 20.65170 -156.74195 31070 ft 334 kts 125°
2026-04-14 03:16 20.62994 -156.69828 31058 ft 334 kts 125°
2026-04-14 03:16 20.60806 -156.65441 31048 ft 334 kts 125°
2026-04-14 03:17 20.58621 -156.61056 31047 ft 335 kts 125°
2026-04-14 03:17 20.55342 -156.54488 31048 ft 332 kts 125°
2026-04-14 03:18 20.53159 -156.50128 31049 ft 334 kts 125°
2026-04-14 03:18 20.50971 -156.45747 31051 ft 334 kts 125°
2026-04-14 03:19 20.48782 -156.41376 31041 ft 333 kts 125°
2026-04-14 03:19 20.46607 -156.37037 31041 ft 334 kts 125°
2026-04-14 03:20 20.44415 -156.32664 30986 ft 334 kts 125°
2026-04-14 03:20 20.42224 -156.28298 30935 ft 331 kts 125°
2026-04-14 03:21 20.41158 -156.26174 30601 ft 326 kts 125°
2026-04-14 03:21 20.40103 -156.24068 30210 ft 318 kts 124°
2026-04-14 03:21 20.39063 -156.22004 29799 ft 314 kts 125°
2026-04-14 03:21 20.38033 -156.19961 29396 ft 312 kts 125°
2026-04-14 03:22 20.37007 -156.17920 28993 ft 312 kts 125°
2026-04-14 03:22 20.35978 -156.15879 28578 ft 313 kts 125°
2026-04-14 03:22 20.34948 -156.13832 28160 ft 314 kts 125°
2026-04-14 03:22 20.33914 -156.11777 27737 ft 315 kts 125°
2026-04-14 03:23 20.32874 -156.09715 27311 ft 315 kts 125°
2026-04-14 03:23 20.31838 -156.07656 26893 ft 315 kts 125°
2026-04-14 03:23 20.30800 -156.05599 26479 ft 315 kts 125°
2026-04-14 03:23 20.29773 -156.03564 26063 ft 316 kts 125°
2026-04-14 03:24 20.28734 -156.01501 25646 ft 316 kts 125°
2026-04-14 03:24 20.27692 -155.99441 25235 ft 316 kts 125°
2026-04-14 03:24 20.26648 -155.97373 24809 ft 317 kts 125°
2026-04-14 03:24 20.25604 -155.95302 24388 ft 317 kts 125°
2026-04-14 03:25 20.24554 -155.93227 23970 ft 318 kts 126°
2026-04-14 03:25 20.23508 -155.91156 23537 ft 316 kts 125°
2026-04-14 03:25 20.22469 -155.89098 23094 ft 315 kts 125°
2026-04-14 03:25 20.21444 -155.87075 22684 ft 315 kts 125°
2026-04-14 03:26 20.20495 -155.84962 22268 ft 321 kts 115°
2026-04-14 03:26 20.19982 -155.82626 21843 ft 327 kts 102°
2026-04-14 03:26 20.19849 -155.80199 21418 ft 329 kts 96°
2026-04-14 03:26 20.19737 -155.77764 20983 ft 329 kts 97°
2026-04-14 03:27 20.19604 -155.75325 20548 ft 330 kts 97°
2026-04-14 03:27 20.19520 -155.73707 20271 ft 330 kts 97°
2026-04-14 03:27 20.19401 -155.71274 19838 ft 329 kts 96°
2026-04-14 03:27 20.19284 -155.68839 19404 ft 329 kts 97°
2026-04-14 03:28 20.19157 -155.66403 18968 ft 329 kts 97°
2026-04-14 03:28 20.19032 -155.63971 18535 ft 329 kts 96°
2026-04-14 03:28 20.18910 -155.61535 18068 ft 328 kts 96°
2026-04-14 03:28 20.18787 -155.59116 17637 ft 326 kts 96°
2026-04-14 03:29 20.18664 -155.56707 17211 ft 326 kts 96°
2026-04-14 03:29 20.18540 -155.54298 16783 ft 326 kts 96°
2026-04-14 03:29 20.18415 -155.51885 16353 ft 327 kts 95°
2026-04-14 03:29 20.18295 -155.49504 15928 ft 326 kts 95°
2026-04-14 03:30 20.18171 -155.47092 15501 ft 326 kts 95°
2026-04-14 03:30 20.18045 -155.44676 15072 ft 327 kts 95°
2026-04-14 03:30 20.17921 -155.42255 14641 ft 327 kts 95°
2026-04-14 03:30 20.17795 -155.39840 14206 ft 326 kts 95°
2026-04-14 03:31 20.17668 -155.37422 13766 ft 326 kts 95°
2026-04-14 03:31 20.17544 -155.35019 13322 ft 323 kts 94°
2026-04-14 03:31 20.17419 -155.32643 12905 ft 321 kts 94°
2026-04-14 03:31 20.17293 -155.30281 12492 ft 319 kts 94°
2026-04-14 03:32 20.17171 -155.27936 12084 ft 316 kts 94°
2026-04-14 03:32 20.17049 -155.25642 11682 ft 313 kts 94°
2026-04-14 03:32 20.16662 -155.23382 11266 ft 310 kts 109°
2026-04-14 03:32 20.15780 -155.21311 10870 ft 306 kts 123°
2026-04-14 03:33 20.14484 -155.19540 10475 ft 301 kts 136°
2026-04-14 03:33 20.13024 -155.17949 10088 ft 300 kts 136°
2026-04-14 03:33 20.11576 -155.16346 9675 ft 299 kts 136°
2026-04-14 03:33 20.10141 -155.14751 9280 ft 296 kts 136°
2026-04-14 03:34 20.07291 -155.11632 8520 ft 292 kts 136°
2026-04-14 03:34 20.05939 -155.10142 8171 ft 262 kts 136°
2026-04-14 03:34 20.04746 -155.08827 7913 ft 233 kts 136°
2026-04-14 03:35 20.03670 -155.07647 7677 ft 213 kts 137°
2026-04-14 03:35 20.02677 -155.06560 7454 ft 197 kts 136°
2026-04-14 03:35 20.01752 -155.05545 7245 ft 185 kts 136°
2026-04-14 03:35 20.00873 -155.04579 7024 ft 178 kts 136°
2026-04-14 03:36 20.00036 -155.03664 6811 ft 172 kts 135°
2026-04-14 03:36 19.99165 -155.02829 6600 ft 166 kts 143°
2026-04-14 03:36 19.98271 -155.02069 6387 ft 163 kts 142°
2026-04-14 03:36 19.97400 -155.01312 6172 ft 159 kts 142°
2026-04-14 03:37 19.96548 -155.00574 5967 ft 156 kts 142°
2026-04-14 03:37 19.95713 -154.99852 5767 ft 153 kts 141°
2026-04-14 03:37 19.94897 -154.99142 5565 ft 150 kts 142°
2026-04-14 03:37 19.94098 -154.98448 5379 ft 147 kts 141°
2026-04-14 03:38 19.93310 -154.97767 5192 ft 145 kts 142°
2026-04-14 03:38 19.92543 -154.97100 4996 ft 143 kts 141°
2026-04-14 03:38 19.91776 -154.96436 4807 ft 141 kts 141°
2026-04-14 03:38 19.91023 -154.95783 4619 ft 138 kts 141°
2026-04-14 03:39 19.90283 -154.95142 4437 ft 136 kts 141°
2026-04-14 03:39 19.89556 -154.94511 4260 ft 134 kts 141°
2026-04-14 03:39 19.88841 -154.93893 4081 ft 132 kts 141°
2026-04-14 03:39 19.88134 -154.93279 3907 ft 130 kts 141°
2026-04-14 03:40 19.87374 -154.92785 3737 ft 128 kts 163°
2026-04-14 03:40 19.86496 -154.92728 3571 ft 127 kts 185°
2026-04-14 03:40 19.85681 -154.93084 3401 ft 130 kts 213°
2026-04-14 03:40 19.85002 -154.93719 3231 ft 130 kts 216°
2026-04-14 03:41 19.84318 -154.94329 3056 ft 130 kts 215°
2026-04-14 03:41 19.83640 -154.94948 2887 ft 128 kts 215°
2026-04-14 03:41 19.82961 -154.95564 2723 ft 128 kts 216°
2026-04-14 03:41 19.82283 -154.96183 2553 ft 128 kts 214°
2026-04-14 03:42 19.81603 -154.96801 2377 ft 129 kts 215°
2026-04-14 03:42 19.80924 -154.97423 2213 ft 128 kts 214°
2026-04-14 03:42 19.80241 -154.98044 2037 ft 130 kts 214°
2026-04-14 03:42 19.79561 -154.98670 1856 ft 129 kts 216°
2026-04-14 03:43 19.78885 -154.99282 1679 ft 126 kts 215°
2026-04-14 03:43 19.78236 -154.99877 1515 ft 121 kts 216°
2026-04-14 03:43 19.77601 -155.00454 1355 ft 118 kts 213°
2026-04-14 03:43 19.76993 -155.01010 1205 ft 118 kts 214°
2026-04-14 03:44 19.76352 -155.01591 1053 ft 122 kts 214°
2026-04-14 03:44 19.75718 -155.02171 900 ft 122 kts 214°
2026-04-14 03:44 19.75076 -155.02758 753 ft 120 kts 216°
2026-04-14 03:44 19.74447 -155.03331 588 ft 121 kts 216°
2026-04-14 03:45 19.73843 -155.03887 437 ft 110 kts 213°
2026-04-14 03:45 19.73282 -155.04404 284 ft 104 kts 219°
2026-04-14 03:45 19.72734 -155.04896 127 ft 103 kts 219°
2026-04-14 03:45 19.72201 -155.05382 38 ft 91 kts 221°
2026-04-14 03:46 19.71788 -155.05758 33 ft 67 kts 220°
2026-04-14 03:46 19.71559 -155.05968 35 ft 23 kts 221°
2026-04-14 03:46 19.71502 -155.06065 35 ft 9 kts 299°
2026-04-14 03:46 19.71540 -155.06099 35 ft 6 kts 353°
2026-04-14 03:47 19.71589 -155.06108 34 ft 7 kts 342°
2026-04-14 03:47 19.71621 -155.06118 34 ft 0 kts 344°